2017-008DC

Last updated on Fri Mar 10 2017 00:15:03 GMT+0000 (Coordinated Universal Time)

1 42046U 17008DC 17068.69480681 .00001464 00000-0 67825-4 0 9993 2 42046 97.5094 130.2918 0008490 177.0539 183.0753 15.21677110 2638
UTC large
Height (km)
Speed (km/s)
/
Latitude / Longitude
Inclination (degrees)
Orbital Period (minutes)
Azimuth
Elevation
Range (km)
Doppler Factor

Next 0 passes for location: London (51.5072 / 0.1276)

Sorry there are no passes over London.